Home   Weather   Yokosuka   Past weeks
Flag for Japan

Past Weather in Yokosuka, Japan — Yesterday and Last 2 Weeks

Now
52 °F

Partly cloudy.


Feels Like: 48 °F
Forecast: 56 / 54 °F
Wind: 10 mph from North

Location: Tokyo International Airport

Current Time: Apr 1, 2020 at 12:47:21 am

Latest Report: Apr 1, 2020 at 12:00 am


Visibility: 4 mi

Pressure: 30.09 "Hg

Humidity: 88%

Dew Point: 48 °F

Location of YokosukaLocation

Past Weather in Yokosuka — Graph

°F

Yokosuka Temperature Yesterday

Maximum temperature yesterday: 55 °F (at 3:00 pm)
Minimum temperature yesterday: 48 °F (at 4:00 am)
Average temperature yesterday: 51 °F

High & Low Weather Summary for the Past Weeks

 TemperatureHumidityPressure
High70 °F (Mar 19, 1:30 pm)100% (Mar 20, 12:00 am)30.24 "Hg (Mar 20, 12:00 am)
Low37 °F (Mar 29, 9:30 am)22% (Mar 20, 10:00 am)29.33 "Hg (Mar 20, 4:00 am)
Average54 °F63%29.94 "Hg
* Reported Mar 16 11:00 pm — Mar 31 11:00 pm, Yokosuka. Weather by CustomWeather, © 2020

Note: Actual official high and low records may vary slightly from our data, if they occured in-between our weather recording intervals... More about our weather records

Yokosuka Weather History for the Previous 24 Hours

Scroll right to see more
 ConditionsComfort  
Time TempWeatherWind HumidityBarometerVisibility
11:00 pm
Tue, Mar 31
52 °FPassing clouds.10 mph88%30.12 "Hg4 mi
10:30 pm52 °FPassing clouds.8 mph88%30.15 "Hg4 mi
10:00 pm52 °FPassing clouds.10 mph88%30.15 "Hg4 mi
9:30 pm54 °FPassing clouds.9 mph88%30.15 "Hg4 mi
9:00 pm52 °FPartly cloudy.9 mph88%30.15 "Hg4 mi
8:30 pm52 °FPassing clouds.9 mph88%30.15 "Hg5 mi
8:00 pm52 °FPassing clouds.10 mph88%30.12 "Hg5 mi
7:30 pm52 °FPassing clouds.12 mph88%30.12 "HgN/A
7:00 pm52 °FPassing clouds.12 mph88%30.12 "HgN/A
6:30 pm54 °FLight rain. Passing clouds.12 mph82%30.12 "HgN/A
6:00 pm54 °FPartly sunny.10 mph82%30.15 "HgN/A
5:30 pm54 °FPartly sunny.9 mph82%30.12 "HgN/A
5:00 pm54 °FPartly sunny.9 mph82%30.12 "HgN/A
4:30 pm54 °FPartly sunny.8 mph82%30.12 "HgN/A
4:00 pm54 °FPartly sunny.9 mph77%30.12 "HgN/A
3:30 pm55 °FPartly sunny.9 mph72%30.12 "HgN/A
3:00 pm55 °FBroken clouds.10 mph72%30.15 "HgN/A
2:30 pm54 °FBroken clouds.10 mph77%30.15 "HgN/A
2:00 pm54 °FPartly sunny.9 mph72%30.15 "HgN/A
1:30 pm52 °FScattered showers. Partly sunny.9 mph77%30.15 "HgN/A
1:00 pm52 °FLight rain. Partly sunny.9 mph77%30.18 "HgN/A
12:30 pm52 °FLight rain. Partly sunny.10 mph72%30.18 "HgN/A
12:00 pm52 °FLight rain. Partly sunny.8 mph67%30.18 "HgN/A
11:30 am52 °FLight rain. Partly sunny.8 mph72%30.21 "HgN/A
11:00 am52 °FLight rain. Partly sunny.8 mph67%30.21 "HgN/A
10:30 am50 °FPartly sunny.8 mph71%30.21 "HgN/A
10:00 am50 °FPartly sunny.9 mph71%30.24 "HgN/A
9:30 am50 °FPartly sunny.10 mph71%30.24 "HgN/A
9:00 am50 °FPartly sunny.10 mph71%30.24 "HgN/A
8:30 am50 °FLight rain. Partly sunny.9 mph67%30.24 "HgN/A
8:00 am50 °FPartly sunny.12 mph71%30.24 "HgN/A
7:30 am50 °FPartly sunny.13 mph71%30.21 "HgN/A
7:00 am48 °FPartly sunny.12 mph71%30.21 "HgN/A
6:30 am48 °FPartly sunny.9 mph76%30.21 "HgN/A
6:00 am50 °FPartly sunny.10 mph71%30.21 "HgN/A
5:30 am48 °FPartly sunny.9 mph71%30.18 "HgN/A
5:00 am50 °FLight rain. Passing clouds.9 mph67%30.18 "HgN/A
4:30 am48 °FScattered showers. Passing clouds.9 mph71%30.18 "HgN/A
4:00 am48 °FLight rain. Passing clouds.10 mph71%30.18 "HgN/A
3:30 am50 °FPassing clouds.10 mph71%30.18 "HgN/A
3:00 am50 °FPartly cloudy.9 mph67%30.18 "HgN/A
2:30 am50 °FPassing clouds.10 mph71%30.18 "HgN/A
2:00 am50 °FPassing clouds.10 mph67%30.18 "HgN/A
1:30 am50 °FPassing clouds.9 mph67%30.21 "HgN/A
1:00 am50 °FPassing clouds.8 mph67%30.21 "HgN/A
12:30 am50 °FPassing clouds.10 mph71%30.21 "HgN/A
12:00 am50 °FPassing clouds.9 mph67%30.21 "HgN/A
Weather by CustomWeather, © 2020

See weather overview

Advertising